Location: Little Arabia
(41.4620°N, 81.7687°W)
Time: 20:38:52
(UTC+00:00)

Aureole 3 Rocket - Pass Details

Date: 29 October 2020
Orbit: 399 x 1739 km, 82.5° (Epoch: 03 December)

Event Time Altitude Azimuth Distance (km) Brightness Sun altitude
Rises 23:23:57 0° 189° (S) 2,592 6.5 -11.6°
Reaches altitude 10° 23:25:47 10° 190° (S) 1,822 5.7 -11.9°
Maximum altitude 23:29:44 82° 278° (W) 683 3.3 -12.6°
Drops below altitude 10° 23:35:18 10° 7° (N) 2,536 6.1 -13.7°
Sets 23:38:13 0° 8° (N) 3,713 6.9 -14.2°
